Bay City, TX

1:16 AM CDT on May 26, 2017 (GMT -0500)
Bay City

Weather History for KBYY - March, 2013

Change the Weather History Date:

Monday, March 25, 2013

  Actual Average (KLBX) Record (KLBX)
Temperature  
Mean Temperature 51 °F -  
Max Temperature 64 °F 70 °F 86 °F (2017)
Min Temperature 38 °F 54 °F 32 °F (2006)
Degree Days  
Heating Degree Days 14    
Growing Degree Days 1 (Base 50)    
Moisture  
Dew Point 26 °F    
Average Humidity 42    
Maximum Humidity 77    
Minimum Humidity 17    
Precipitation  
Precipitation 0.00 in - - ()
Sea Level Pressure  
Sea Level Pressure 30.25 in    
Wind  
Wind Speed 9 mph (North)    
Max Wind Speed 16 mph    
Max Gust Speed 25 mph    
Visibility 10 miles    
Events      
Averages and records for this station are not official NWS values.
T = Trace of Precipitation, MM = Missing Value Source: NWS Daily Summary

Daily Weather History Graph

Daily Weather History Graph

Search for Another Location

Airport or City:

Trip Planner

Search our weather history database for the weather conditions in past years. The results will help you decide how hot, cold, wet, or windy it might be!

Date:

Astronomy

Mar. 25, 2013 Rise Set
Actual Time 7:21 AM CDT 7:37 PM CDT
Civil Twilight 6:57 AM CDT 8:01 PM CDT
Nautical Twilight 6:29 AM CDT 8:29 PM CDT
Astronomical Twilight 6:01 AM CDT 8:57 PM CDT
Moon 6:14 PM CDT (3/25) 5:58 AM CDT (3/25)
Length of Visible Light 13h 04m
Length of Day
12h 16m
Waxing Gibbous, 96% of the Moon is Illuminated
Mar 25
Waxing Gibbous
Mar 27
Full
Apr 2
Last Quarter
Apr 10
New
Apr 18
First Quarter

Hourly Weather History & Observations

Time (CDT) Temp. Windchill Dew Point Humidity Pressure Visibility Wind Dir Wind Speed Gust Speed Precip Events Conditions
12:15 AM 46.0 °F 41.9 °F 32.0 °F 58% 30.15 in 10.0 mi North 8.1 mph - N/A   Clear
12:35 AM 45.7 °F 41.5 °F 32.0 °F 59% 30.15 in 10.0 mi North 8.1 mph - N/A   Clear
12:55 AM 45.0 °F 40.6 °F 32.0 °F 60% 30.15 in 10.0 mi North 8.1 mph - N/A   Clear
1:15 AM 45.1 °F 40.8 °F 32.0 °F 60% 30.15 in 10.0 mi North 8.1 mph - N/A   Clear
1:35 AM 45.9 °F 40.8 °F 31.8 °F 58% 30.16 in 10.0 mi North 10.4 mph - N/A   Clear
1:55 AM 46.4 °F 42.4 °F 31.6 °F 56% 30.16 in 10.0 mi North 8.1 mph - N/A   Clear
2:15 AM 45.3 °F 41.1 °F 31.8 °F 59% 30.16 in 10.0 mi North 8.1 mph - N/A   Clear
2:35 AM 43.9 °F 39.9 °F 32.0 °F 63% 30.16 in 10.0 mi North 6.9 mph - N/A   Clear
2:55 AM 43.5 °F 38.9 °F 32.0 °F 64% 30.15 in 10.0 mi North 8.1 mph - N/A   Clear
3:15 AM 43.5 °F 38.3 °F 32.0 °F 64% 30.14 in 10.0 mi NNE 9.2 mph - N/A   Clear
3:35 AM 43.9 °F 39.3 °F 32.0 °F 63% 30.16 in 10.0 mi North 8.1 mph - N/A   Clear
3:55 AM 43.0 °F 39.5 °F 32.0 °F 65% 30.16 in 10.0 mi North 5.8 mph - N/A   Clear
4:15 AM 41.4 °F 36.8 °F 32.0 °F 69% 30.16 in 10.0 mi North 6.9 mph - N/A   Clear
4:35 AM 39.9 °F 34.5 °F 32.0 °F 73% 30.16 in 10.0 mi North 8.1 mph - N/A   Clear
4:55 AM 40.1 °F 34.7 °F 32.2 °F 73% 30.16 in 10.0 mi North 8.1 mph - N/A   Clear
5:15 AM 40.1 °F 36.1 °F 32.0 °F 73% 30.16 in 10.0 mi North 5.8 mph - N/A   Clear
5:35 AM 39.9 °F 34.5 °F 32.0 °F 73% 30.17 in 10.0 mi North 8.1 mph - N/A   Clear
5:55 AM 39.2 °F 33.6 °F 32.0 °F 75% 30.19 in 10.0 mi North 8.1 mph - N/A   Clear
6:15 AM 40.1 °F 36.1 °F 32.0 °F 73% 30.21 in 10.0 mi North 5.8 mph - N/A   Clear
6:35 AM 39.6 °F 36.3 °F 32.0 °F 74% 30.22 in 10.0 mi NNW 4.6 mph - N/A   Clear
6:55 AM 38.7 °F 33.6 °F 32.0 °F 77% 30.23 in 10.0 mi North 6.9 mph - N/A   Clear
7:15 AM 38.7 °F 33.6 °F 32.0 °F 77% 30.25 in 10.0 mi North 6.9 mph - N/A   Clear
7:35 AM 38.8 °F 32.6 °F 32.2 °F 77% 30.26 in 10.0 mi North 9.2 mph - N/A   Clear
7:55 AM 40.3 °F 34.4 °F 32.5 °F 74% 30.27 in 10.0 mi North 9.2 mph - N/A   Clear
8:15 AM 42.4 °F 35.7 °F 32.4 °F 68% 30.28 in 10.0 mi North 12.7 mph - N/A   Clear
8:35 AM 44.1 °F 37.7 °F 32.7 °F 64% 30.29 in 10.0 mi North 12.7 mph - N/A   Clear
8:55 AM 45.9 °F 40.4 °F 32.5 °F 60% 30.30 in 10.0 mi North 11.5 mph 17.3 mph N/A   Clear
9:15 AM 47.7 °F - 31.5 °F 53% 30.31 in 10.0 mi North 16.1 mph 23.0 mph N/A   Clear
9:35 AM 48.7 °F - 30.7 °F 50% 30.31 in 10.0 mi NNE 16.1 mph 23.0 mph N/A   Clear
9:55 AM 49.8 °F - 29.7 °F 46% 30.32 in 10.0 mi NNE 13.8 mph 25.3 mph N/A   Clear
10:15 AM 51.1 °F - 28.8 °F 42% 30.33 in 10.0 mi NNE 12.7 mph 20.7 mph N/A   Clear
10:35 AM 52.9 °F - 27.5 °F 38% 30.33 in 10.0 mi North 15.0 mph 19.6 mph N/A   Clear
10:55 AM 54.5 °F - 25.2 °F 32% 30.33 in 10.0 mi NNE 11.5 mph 19.6 mph N/A   Clear
11:15 AM 55.6 °F - 24.4 °F 30% 30.34 in 10.0 mi North 13.8 mph 18.4 mph N/A   Clear
11:35 AM 56.5 °F - 23.0 °F 27% 30.34 in 10.0 mi NNE 10.4 mph 17.3 mph N/A   Clear
11:55 AM 57.4 °F - 21.4 °F 25% 30.33 in 10.0 mi NNE 13.8 mph - N/A   Clear
12:15 PM 58.1 °F - 19.2 °F 22% 30.33 in 10.0 mi NNE 10.4 mph 23.0 mph N/A   Clear
12:35 PM 58.8 °F - 18.7 °F 21% 30.32 in 10.0 mi NNE 11.5 mph 19.6 mph N/A   Clear
12:55 PM 59.7 °F - 17.6 °F 19% 30.32 in 10.0 mi North 11.5 mph 19.6 mph N/A   Clear
1:15 PM 60.6 °F - 16.5 °F 18% 30.31 in 10.0 mi NNE 8.1 mph 16.1 mph N/A   Clear
1:35 PM 61.5 °F - 16.7 °F 18% 30.30 in 10.0 mi NNW 10.4 mph 18.4 mph N/A   Clear
1:55 PM 61.9 °F - 16.5 °F 17% 30.29 in 10.0 mi North 4.6 mph 18.4 mph N/A   Clear
2:15 PM 62.4 °F - 18.9 °F 19% 30.27 in 10.0 mi North 12.7 mph 17.3 mph N/A   Clear
2:35 PM 62.8 °F - 18.7 °F 18% 30.27 in 10.0 mi North 6.9 mph 18.4 mph N/A   Clear
2:55 PM 63.3 °F - 19.6 °F 19% 30.26 in 10.0 mi North 10.4 mph 18.4 mph N/A   Clear
3:15 PM 63.7 °F - 18.7 °F 18% 30.26 in 10.0 mi NNW 9.2 mph 18.4 mph N/A   Clear
3:35 PM 64.0 °F - 18.5 °F 17% 30.26 in 10.0 mi NNW 9.2 mph - N/A   Clear
3:55 PM 64.2 °F - 19.8 °F 18% 30.25 in 10.0 mi North 13.8 mph - N/A   Clear
4:15 PM 64.6 °F - 20.1 °F 18% 30.24 in 10.0 mi NNW 10.4 mph 16.1 mph N/A   Clear
4:35 PM 64.4 °F - 19.2 °F 18% 30.24 in 10.0 mi NNW 9.2 mph - N/A   Clear
4:55 PM 64.4 °F - 20.5 °F 19% 30.23 in 10.0 mi NNW 6.9 mph - N/A   Clear
5:15 PM 64.0 °F - 19.9 °F 18% 30.23 in 10.0 mi North 10.4 mph - N/A   Clear
5:35 PM 64.0 °F - 19.9 °F 18% 30.23 in 10.0 mi NW 5.8 mph - N/A   Clear
5:55 PM 63.7 °F - 19.8 °F 19% 30.23 in 10.0 mi NW 9.2 mph 17.3 mph N/A   Clear
6:15 PM 62.8 °F - 19.4 °F 19% 30.24 in 10.0 mi NNW 8.1 mph - N/A   Clear
6:35 PM 62.1 °F - 18.9 °F 19% 30.24 in 10.0 mi NNW 9.2 mph - N/A   Clear
6:55 PM 61.2 °F - 19.2 °F 20% 30.25 in 10.0 mi NNW 5.8 mph - N/A   Clear
7:15 PM 59.5 °F - 20.3 °F 22% 30.26 in 10.0 mi NNW 9.2 mph - N/A   Clear
7:35 PM 57.6 °F - 20.7 °F 24% 30.26 in 10.0 mi NNW 6.9 mph - N/A   Clear
7:55 PM 55.2 °F - 21.6 °F 27% 30.27 in 10.0 mi NNW 5.8 mph - N/A   Clear
8:15 PM 53.4 °F - 22.1 °F 30% 30.28 in 10.0 mi NNW 4.6 mph - N/A   Clear
8:35 PM 52.7 °F - 22.3 °F 31% 30.29 in 10.0 mi NNW 4.6 mph - N/A   Clear
8:55 PM 52.3 °F - 22.8 °F 32% 30.29 in 10.0 mi NNW 5.8 mph - N/A   Clear
9:15 PM 51.4 °F - 23.2 °F 33% 30.30 in 10.0 mi NNW 5.8 mph - N/A   Clear
9:35 PM 49.8 °F - 23.9 °F 36% 30.31 in 10.0 mi NNW 4.6 mph - N/A   Clear
9:55 PM 49.5 °F - 24.4 °F 38% 30.32 in 10.0 mi NNW 5.8 mph - N/A   Clear
10:15 PM 49.3 °F - 24.8 °F 38% 30.33 in 10.0 mi North 6.9 mph - N/A   Clear
10:35 PM 49.3 °F - 25.2 °F 39% 30.33 in 10.0 mi NNW 8.1 mph - N/A   Clear
10:55 PM 50.4 °F - 24.8 °F 37% 30.35 in 10.0 mi North 8.1 mph - N/A   Clear
11:15 PM 50.0 °F - 25.2 °F 38% 30.36 in 10.0 mi North 9.2 mph - N/A   Clear
11:35 PM 50.0 °F - 25.3 °F 38% 30.36 in 10.0 mi North 9.2 mph - N/A   Clear
11:55 PM 49.6 °F - 25.5 °F 39% 30.36 in 10.0 mi North 9.2 mph - N/A   Clear